Imperial, CA

2:14 AM PDT on August 27, 2016 (GMT -0700)
Imperial County

Weather History for KIPL - October, 2011

Change the Weather History Date:

Monday, October 10, 2011

  Actual Average Record
Temperature  
Mean Temperature 72 °F -  
Max Temperature 91 °F 91 °F 108 °F (1996)
Min Temperature 54 °F 62 °F 49 °F (1949)
Cooling Degree Days 7    
Growing Degree Days 22 (Base 50)    
Moisture  
Dew Point 38 °F    
Average Humidity 31    
Maximum Humidity 53    
Minimum Humidity 13    
Precipitation  
Precipitation 0.00 in - - ()
Sea Level Pressure  
Sea Level Pressure 29.83 in    
Wind  
Wind Speed 4 mph (West)    
Max Wind Speed 9 mph    
Max Gust Speed -    
Visibility 10 miles    
Events      
Averages and records for this station are not official NWS values.
T = Trace of Precipitation, MM = Missing Value Source: NWS Daily Summary

Daily Weather History Graph

Daily Weather History Graph

Search for Another Location

Airport or City:

Trip Planner

Search our weather history database for the weather conditions in past years. The results will help you decide how hot, cold, wet, or windy it might be!

Date:

Astronomy

Oct. 10, 2011 Rise Set
Actual Time 6:42 AM PDT 6:15 PM PDT
Civil Twilight 6:17 AM PDT 6:40 PM PDT
Nautical Twilight 5:49 AM PDT 7:08 PM PDT
Astronomical Twilight 5:20 AM PDT 7:37 PM PDT
Moon 5:21 PM PDT (10/10) 5:29 AM PDT (10/10)
Length of Visible Light 12h 22m
Length of Day
11h 32m
Waxing Gibbous, 98% of the Moon is Illuminated
Oct 10
Waxing Gibbous
Oct 11
Full
Oct 19
Last Quarter
Oct 26
New
Nov 2
First Quarter

Hourly Weather History & Observations

Time (PDT) Temp. Dew Point Humidity Pressure Visibility Wind Dir Wind Speed Gust Speed Precip Events Conditions
12:53 AM 63.0 °F 41.0 °F 45% 29.84 in 10.0 mi SSW 3.5 mph - N/A   Clear
1:53 AM 60.1 °F 37.0 °F 42% 29.85 in 10.0 mi West 6.9 mph - N/A   Clear
2:53 AM 57.2 °F 37.4 °F 48% 29.84 in 10.0 mi WSW 3.5 mph - N/A   Clear
3:53 AM 59.0 °F 36.0 °F 42% 29.84 in 10.0 mi West 5.8 mph - N/A   Clear
4:53 AM 57.0 °F 35.1 °F 44% 29.84 in 10.0 mi West 5.8 mph - N/A   Clear
5:53 AM 55.0 °F 36.0 °F 49% 29.86 in 10.0 mi West 5.8 mph - N/A   Clear
6:53 AM 54.0 °F 37.0 °F 53% 29.86 in 10.0 mi WSW 4.6 mph - N/A   Clear
7:53 AM 61.0 °F 39.0 °F 44% 29.87 in 10.0 mi WSW 5.8 mph - N/A   Clear
8:53 AM 70.0 °F 44.1 °F 39% 29.88 in 10.0 mi West 5.8 mph - N/A   Clear
9:53 AM 78.8 °F 37.4 °F 23% 29.89 in 10.0 mi NW 4.6 mph - N/A   Clear
10:53 AM 82.0 °F 41.0 °F 23% 29.88 in 10.0 mi NW 4.6 mph - N/A   Clear
11:53 AM 86.0 °F 35.1 °F 16% 29.88 in 10.0 mi NNW 3.5 mph - N/A   Clear
12:53 PM 87.1 °F 35.1 °F 16% 29.84 in 10.0 mi Calm Calm - N/A   Clear
1:53 PM 88.0 °F 32.0 °F 14% 29.81 in 10.0 mi SSW 4.6 mph - N/A   Clear
2:53 PM 90.0 °F 32.0 °F 13% 29.79 in 10.0 mi NE 4.6 mph - N/A   Clear
3:53 PM 89.1 °F 32.0 °F 13% 29.78 in 10.0 mi Calm Calm - N/A   Clear
4:53 PM 89.6 °F 35.6 °F 15% 29.77 in 10.0 mi Calm Calm - N/A   Clear
5:53 PM 87.8 °F 35.6 °F 16% 29.76 in 10.0 mi Calm Calm - N/A   Clear
6:53 PM 80.1 °F 39.9 °F 24% 29.77 in 10.0 mi Calm Calm - N/A   Clear
7:53 PM 79.0 °F 39.9 °F 25% 29.78 in 10.0 mi Calm Calm - N/A   Clear
8:53 PM 75.0 °F 41.0 °F 29% 29.79 in 10.0 mi Calm Calm - N/A   Clear
9:53 PM 75.9 °F 41.0 °F 29% 29.80 in 10.0 mi SW 9.2 mph - N/A   Clear
10:53 PM 69.1 °F 45.0 °F 42% 29.80 in 10.0 mi SW 3.5 mph - N/A   Clear
11:53 PM 68.0 °F 42.8 °F 40% 29.80 in 10.0 mi Calm Calm - N/A   Clear